Location: Seattle
(47.6060°N, 122.3310°W)
Time: 13:42:04
(UTC-08:00)

X-37B - Visible Passes

Search period start: 15 January 2021 00:00
Search period end: 25 January 2021 00:00
Orbit: 384 x 390 km, 45.0° (Epoch: 02 January)

Date Brightness Start Highest point End Pass type
(mag) Time Alt. Az. Time Alt. Az. Time Alt. Az.
18 Jan 3.1 19:05:09 10° SSW 19:06:04 15° S 19:06:04 15° S visible
19 Jan 2.9 18:07:40 10° S 18:09:20 14° SSE 18:10:23 12° SE visible
19 Jan 3.9 19:42:26 10° SW 19:42:40 12° SW 19:42:40 12° SW visible
20 Jan 1.9 18:44:15 10° SW 18:46:57 29° SSE 18:46:57 29° SSE visible
21 Jan 2.5 17:46:18 10° SSW 17:48:45 20° SSE 17:51:11 10° ESE visible
21 Jan 2.8 19:21:54 10° WSW 19:23:27 25° SW 19:23:27 25° SW visible
22 Jan 1.5 18:23:35 10° SW 18:26:36 39° SSE 18:27:40 28° ESE visible
22 Jan 4.2 19:59:52 10° W 19:59:57 11° W 19:59:57 11° W visible
23 Jan 1.3 19:01:26 10° WSW 19:04:08 48° SSW 19:04:08 48° SSW visible
24 Jan 1.2 18:03:03 10° WSW 18:06:09 48° S 18:08:20 17° ESE visible
24 Jan 3.3 19:39:29 10° W 19:40:37 19° WSW 19:40:37 19° WSW visible
